モス彗星

C/2012 CH17 ( MOSS )

English version
Home page
Updated on June 29, 2013

---------------------------------------------------------------------

・ プロフィール

発見日 2012年2月7日
発見光度 17.9等
発見者 Morocco Oukaimeden Sky Survey (MOSS)

・ 写真集

・ 軌道要素

Epoch 2012 Sept. 30.0 TT = JDT 2456200.5
T 2012 Sept. 28.22278 TT                                MPC
q   1.2961798            (2000.0)            P               Q
z  +0.0000416      Peri.  137.99158     -0.04272961     +0.92534853
 +/-0.0000027      Node   125.98193     -0.99486397     -0.00477933
e   0.9999461      Incl.   27.74404     -0.09175985     -0.37908740
From 552 observations 2012 Feb. 2-2013 June 10, mean residual 0".6.

・ 星図

・ 光度変化

        m1 = 11.0 + 5 logΔ + 10.0 log r           [   ,-62]  (              〜2012年 7月28日)
        m1 =  2   + 5 logΔ + 30   log r(t + 200)  [-62, 20]  (2012年 7月28日〜2012年10月18日)
        m1 = 16.5 + 5 logΔ +  5.0 log r           [ 20,   ]  (2012年10月18日〜              )

        ※ 灰色の曲線は、m1 = 11.0 + 5 logΔ + 10.0 log r の光度曲線です。

---------------------------------------------------------------------

軌道要素はM.P.E.C. 2013-M31に掲載されたものです。
星図はステラナビゲータ Ver.8 (アストロアーツ) で作成したものです。
光度グラフはComet for Windowsで作成したものです。

---------------------------------------------------------------------

Copyright(C) Seiichi Yoshida (comet@aerith.net). All rights reserved.